Regional Weather Roundup
Issued by NWS

Home | Current Version | Previous Version | Text Only | Print | Product List | Glossary Off
Versions: 1 2 3 4 5 6 7 8 9 10 11 12 13 14 15 16 17 18 19 20 21 22 23 24 25 26 27 28 29 30 31 32 33 34 35 36 37 38 39 40 41 42 43 44 45 46 47 48 49 50

000
ASUS43 KMKX 221221
RWRWI

WISCONSIN REGIONAL WEATHER ROUNDUP
NATIONAL WEATHER SERVICE MILWAUKEE/SULLIVAN WI
700 AM CDT THU JUN 22 2017

NOTE: "FAIR" INDICATES FEW OR NO CLOUDS BELOW 12,000 FEET WITH NO
SIGNIFICANT WEATHER AND/OR OBSTRUCTIONS TO VISIBILITY.

WIZ001-002-006>008-014>016-023>028-221300-
NORTHWEST WISCONSIN

CITY           SKY/WX    TMP DP  RH WIND       PRES   REMARKS
SUPERIOR ARPT  NOT AVBL
ASHLAND        CLOUDY    59  55  87 SW6       29.69R
6HR MIN TEMP:  50; 6HR MAX TEMP:  60;

HAYWARD        CLOUDY    65  59  81 SW6       29.73R
6HR MIN TEMP:  60; 6HR MAX TEMP:  67;

SIREN          PTSUNNY   65  63  90 CALM      29.73R
6HR MIN TEMP:  61; 6HR MAX TEMP:  69;

CUMBERLAND     LGT RAIN  61  59  94 N5        29.73R
RICE LAKE      LGT RAIN  64  60  89 CALM      29.74R
6HR MIN TEMP:  61; 6HR MAX TEMP:  68;

CHETEK         CLOUDY    63  61  93 N6        29.74R
6HR MIN TEMP:  60; 6HR MAX TEMP:  67;

LADYSMITH      CLOUDY    63  60  90 SE3       29.76R
6HR MIN TEMP:  59; 6HR MAX TEMP:  66;

EAU CLAIRE     CLOUDY    66  63  90 CALM      29.71R
6HR MIN TEMP:  63; 6HR MAX TEMP:  70;

MENOMONIE      PTSUNNY   67  64  89 CALM      29.71S
6HR MIN TEMP:  63; 6HR MAX TEMP:  67;

NEW RICHMOND   CLOUDY    65  63  94 N7        29.71F
6HR MIN TEMP:  64; 6HR MAX TEMP:  67;

OSCEOLA        LGT RAIN  64  64 100 NW7       29.74R
6HR MIN TEMP:  63; 6HR MAX TEMP:  69; 6HR PCP:  0.01;

$$

WIZ003>005-009-010-017-018-221300-
NORTH CENTRAL WISCONSIN

CITY           SKY/WX    TMP DP  RH WIND       PRES   REMARKS
MANITOWISH WTR PTSUNNY   64  62  95 S7        29.72S
6HR MIN TEMP:  57; 6HR MAX TEMP:  64;

ARBOR VITAE    CLOUDY    64  60  86 SW5       29.72F
6HR MIN TEMP:  59; 6HR MAX TEMP:  65;

WOODRUFF       CLOUDY    64  60  86 SW5       29.72F
6HR MIN TEMP:  59; 6HR MAX TEMP:  65;

RHINELANDER    CLOUDY    64  61  90 SW8       29.74S
6HR MIN TEMP:  60; 6HR MAX TEMP:  66;

EAGLE RIVER    MOSUNNY   64  58  79 SW7       29.73F
6HR MIN TEMP:  57; 6HR MAX TEMP:  64;

LAND O LAKES   CLOUDY    65  59  79 SW5       29.74S
6HR MIN TEMP:  57; 6HR MAX TEMP:  64;

PHILLIPS       PTSUNNY   62  60  94 S5        29.72S
6HR MIN TEMP:  57; 6HR MAX TEMP:  65;

TOMAHAWK       NOT AVBL
MEDFORD        CLOUDY    64  62  92 SW6       29.74R
6HR MIN TEMP:  60; 6HR MAX TEMP:  64;

MERRILL        CLOUDY    65  63  93 CALM      29.74S
6HR MIN TEMP:  62; 6HR MAX TEMP:  65;

$$

WIZ029-030-035-036-043>047-221300-
CENTRAL WISCONSIN

CITY           SKY/WX    TMP DP  RH WIND       PRES   REMARKS
WAUSAU         CLOUDY    65  63  93 CALM      29.71S
6HR MIN TEMP:  62; 6HR MAX TEMP:  66;

MOSINEE        MOSUNNY   64  64 100 S7        29.74R
MARSHFIELD     CLOUDY    66  63  90 SW6       29.72S
6HR MIN TEMP:  62; 6HR MAX TEMP:  66; 6HR PCP:  0.16;

STEVENS POINT  CLOUDY    64  64 100 S6        29.74S
6HR MIN TEMP:  60; 6HR MAX TEMP:  64; 6HR PCP:  0.22;

WAUPACA        CLOUDY    67  67  98 CALM      29.73S
6HR MIN TEMP:  64; 6HR MAX TEMP:  66; 6HR PCP:  0.02;

WAUTOMA        HVY RAIN  69  67  93 SW13G22   29.74F
6HR MIN TEMP:  63; 6HR MAX TEMP:  70; 6HR PCP:  0.24;

WISC RAPIDS    LGT RAIN  70  68  93 SW8G21    29.75R FOG
6HR MIN TEMP:  62; 6HR MAX TEMP:  69; 6HR PCP:  0.06;

CAMP DOUGLAS   PTSUNNY   68  68 100 SE5       29.73S
                                      6HR PCP:  0.48;

$$

WIZ011>013-019>022-031-037>040-048>050-221300-
NORTHEAST WISCONSIN

CITY           SKY/WX    TMP DP  RH WIND       PRES   REMARKS
ANTIGO         CLOUDY    62  61  96 SW5       29.76R
6HR MIN TEMP:  60; 6HR MAX TEMP:  62;

SHAWANO        CLOUDY    66  63  88 SW5       29.72S
6HR MIN TEMP:  63; 6HR MAX TEMP:  66; 6HR PCP:  0.09;

OCONTO         CLOUDY    64  61  89 CALM      29.72S
6HR MIN TEMP:  61; 6HR MAX TEMP:  66;

STURGEON BAY     N/A     65  62  90 SW8         N/A
6HR MIN TEMP:  60; 6HR MAX TEMP:  65;

GREEN BAY      CLOUDY    65  65 100 S9        29.74S
6HR MIN TEMP:  61; 6HR MAX TEMP:  67; 6HR PCP:  0.41;

MANITOWOC      LGT RAIN  62  60  93 N8        29.79R
6HR MIN TEMP:  60; 6HR MAX TEMP:  66; 6HR PCP:  1.29;

APPLETON       PTSUNNY   66  64  94 SW10G17   29.74F
CLINTONVILLE   CLOUDY    64  63  94 CALM      29.73R
OSHKOSH        LGT RAIN  69  65  86 SW12      29.74S
6HR MIN TEMP:  63; 6HR MAX TEMP:  69; 6HR PCP:  0.41;

$$

WIZ032>034-041-042-053>061-221300-
SOUTHWEST WISCONSIN

CITY           SKY/WX    TMP DP  RH WIND       PRES   REMARKS
LA CROSSE      CLOUDY    73  69  87 S9        29.71R
6HR MIN TEMP:  70; 6HR MAX TEMP:  73; 6HR PCP:  0.23;

SPARTA         CLOUDY    68  67  98 CALM      29.74S
6HR MIN TEMP:  66; 6HR MAX TEMP:  70; 6HR PCP:  0.44;

VIROQUA        CLOUDY    69  66  89 SW12      29.75S
6HR MIN TEMP:  67; 6HR MAX TEMP:  71; 6HR PCP:  0.23;

BOSCOBEL       LGT RAIN  69  66  90 CALM      29.75F
6HR MIN TEMP:  68; 6HR MAX TEMP:  76; 6HR PCP:  0.10;

PRAIRIE DU CHI LGT RAIN  73  61  66 SW9G20    29.74F
6HR MIN TEMP:  70; 6HR MAX TEMP:  77; 6HR PCP:  0.04;

PLATTEVILLE    FAIR      73  68  83 S9        29.79F
6HR MIN TEMP:  69; 6HR MAX TEMP:  77;

$$

WIZ056-057-062-063-064-067-068-221300-
SOUTH CENTRAL WISCONSIN

CITY           SKY/WX    TMP DP  RH WIND       PRES   REMARKS
REEDSBURG      CLOUDY    68  68 100 CALM      29.76S
6HR MIN TEMP:  67; 6HR MAX TEMP:  72; 6HR PCP:  0.28;

BARABOO/DELLS  CLOUDY    68  66  94 S10G17    29.76F
6HR MIN TEMP:  67; 6HR MAX TEMP:  73; 6HR PCP:  0.26;

LONE ROCK      LGT RAIN  69  67  93 NE9       29.72F FOG
6HR MIN TEMP:  68; 6HR MAX TEMP:  74; 6HR PCP:  0.11;

MINERAL POINT  LGT RAIN  73  68  83 SW6       29.80S
MADISON        CLOUDY    69  67  93 CALM      29.80R
6HR MIN TEMP:  69; 6HR MAX TEMP:  74; 6HR PCP:  0.04;

MIDDLETON      CLOUDY    70  69  98 CALM      29.81R
6HR MIN TEMP:  69; 6HR MAX TEMP:  72; 6HR PCP:  0.04;

WATERTOWN      LGT RAIN  66  66 100 E3        29.81F
6HR MIN TEMP:  64; 6HR MAX TEMP:  68;

MONROE         CLOUDY    73  63  68 SW21      29.82F
JANESVILLE     CLOUDY    75  66  73 S13       29.83S
$$

WIZ051-052-058>065-066-070>072-221300-
SOUTHEAST WISCONSIN

CITY           SKY/WX    TMP DP  RH WIND       PRES   REMARKS
MILWAUKEE      CLOUDY    74  66  76 SW10      29.82R
6HR MIN TEMP:  66; 6HR MAX TEMP:  74; 6HR PCP: TRACE;

WAUKESHA       PTSUNNY   72  64  78 SW9       29.84R
MILWAUKEE/TIMM CLOUDY    70  61  73 CALM      29.83R
RACINE         CLOUDY    76  66  71 W12G21    29.84R
6HR MIN TEMP:  66; 6HR MAX TEMP:  76;

KENOSHA        CLOUDY    76  65  68 SW14      29.84R
6HR MIN TEMP:  65; 6HR MAX TEMP:  76;

FOND DU LAC    HVY RAIN  69  64  84 S9        29.78F
6HR MIN TEMP:  66; 6HR MAX TEMP:  69; 6HR PCP:  0.22;

SHEBOYGAN      RAIN      69  67  93 SW12      29.78F FOG
6HR MIN TEMP:  62; 6HR MAX TEMP:  69; 6HR PCP:  0.33;

WEST BEND      LGT RAIN  68  66  94 SW6       29.80F
JUNEAU         LGT RAIN  65  64  97 SE3       29.82S
6HR MIN TEMP:  64; 6HR MAX TEMP:  68; 6HR PCP:  0.25;

$$

LSZ147-162-221300-
LAKE SUPERIOR

STATION/POSITION TIME  TEMP    WIND        PRES    WAVE
                       AIR SEA DIR/SP/G            HT/PER
                 (UTC) (F)     (DEG/KT/KT) (MB)    (FT/S)
W MID LAKE BUOY  1150   46 39  250/ 10/ 12 1004.1R   1
DEVILS ISLAND    1200   50     230/ 12/ 13 1005.3R
SAXON HARBOR     1140   67     190/  7/ 10 1004.4R
$$

LMZ867-665-643>646-221300-
LAKE MICHIGAN

STATION/POSITION TIME  TEMP    WIND        PRES    WAVE
                       AIR SEA DIR/SP/G            HT/PER
                 (UTC) (F)     (DEG/KT/KT) (MB)    (FT/S)
CHAMBERS ISLAND  1140   64     160/  3/ 10 1006.1F
N MID LAKE BUOY  1150   58 55  180/ 14/ 17 1007.7R   2/ 4
NORTHPORT PIER   1140   62     160/  4/ 12 1007.1R
KEWAUNEE LAKESHO 115



USA.gov is the U.S. government's official web portal to all federal, state and local government web resources and services.